Location: Alta
(39.2070°N, 120.8111°W)
Time: 21:58:08
(UTC+00:00)

JY1SAT - Visible Passes

Search period start: 30 May 2024 00:00
Search period end: 09 June 2024 00:00
Orbit: 538 x 552 km, 97.5° (Epoch: 30 May)

Date Brightness Start Highest point End Pass type
(mag) Time Alt. Az. Time Alt. Az. Time Alt. Az.
30 May ? 04:21:25 14° ESE 04:23:54 26° ENE 04:27:11 10° NNE visible
30 May ? 05:57:03 17° SW 05:58:31 20° W 06:01:28 10° NW visible
31 May ? 04:15:32 12° ESE 04:18:10 22° ENE 04:21:14 10° NNE visible
31 May ? 05:51:08 18° SW 05:52:41 24° W 05:55:52 10° NW visible
01 Jun ? 04:09:37 10° ESE 04:12:24 19° ENE 04:15:14 10° NNE visible
01 Jun ? 05:45:14 20° SW 05:46:51 27° W 05:50:14 10° NW visible
02 Jun ? 04:04:06 10° ESE 04:06:39 17° ENE 04:09:12 10° NNE visible
02 Jun ? 05:39:18 22° SW 05:41:01 32° W 05:44:32 10° NNW visible
03 Jun ? 03:58:41 10° E 04:00:51 15° ENE 04:03:03 10° NNE visible
03 Jun ? 05:33:21 24° SSW 05:35:09 38° W 05:38:49 10° NNW visible
04 Jun ? 05:27:24 25° SSW 05:29:17 45° W 05:33:03 10° NNW visible
05 Jun ? 05:21:26 26° SSW 05:23:24 54° W 05:27:14 10° NNW visible
06 Jun ? 05:15:27 26° S 05:17:30 65° W 05:21:25 10° NNW visible
07 Jun ? 05:09:27 26° S 05:11:37 78° W 05:15:32 10° NNW visible
08 Jun ? 05:03:27 24° SSE 05:05:42 88° ENE 05:09:38 10° NNW visible
